Location: Misciano
(43.5000°N, 11.9500°E)
Time: 16:36:38
(UTC+00:00)

H-2A R/B - Pass Details

Date: 13 August 2020
Orbit: 733 x 837 km, 98.2° (Epoch: 18 September)

Event Time Altitude Azimuth Distance (km) Brightness Sun altitude
Rises 19:34:03 0° 204° (SSW) 3,260 5.1 -13.0°
Reaches altitude 10° 19:36:59 10° 221° (SW) 2,318 4.6 -13.5°
Maximum altitude 19:40:40 20° 268° (W) 1,714 4.5 -14.0°
Drops below altitude 10° 19:44:20 10° 315° (NW) 2,285 5.9 -14.5°
Sets 19:47:13 0° 332° (NNW) 3,200 6.5 -15.0°
